Погода в Астане

Погода в Астане : погода сейчас, прогноз погоды и архив. Всё, что Вы хотите узнать о погоде в Астане!

Хотите узнать прогноз погоды Астана? Тогда Вам сюда: Погода Астана

Поиск расширенной информации на нашем сайте:

Другие новости

Новости СМИ2

Главная страница сайта

Новости сайта

02.10.2013

Напоминаем, что на нашем новом сайте вы можете получить высокодетализированные прогнозы погоды по пунктам России, СНГ и мира (включающие важные для авиации метеовеличины, такие как направление и скорость ветра, видимость, явления погоды, количество и форма облачности, нижняя и верхняя граница облачности), а также ознакомиться с разнообразными материалами по авиационной метеорологии и подборкой полезных ссылок на эту тему.

Сайт Метеоцентр.Азия посвящён разработке технологий оптимизации авиаметеорологического обслуживания, включая проектирование и перспективное создание нескольких автоматизированных авиаметеорологических систем:
- система выпуска высокодетальных прогностических карт явлений погоды для нижнего воздушного пространства по России и ближнему зарубежью;
- система верификации прогнозов TAF (выпускаемых синоптиками официальных АМСГ РФ и ближнего зарубежья) и AUTOTAF (выпускаемых сайтом Метеоцентр.Азия) - выявление ошибок, онлайн-сопоставление с фактической погодой METAR, автоматическое внесение коррективов в прогнозы при резком отклонении фактической погоды от прогноза, подсчёт оправдываемости прогнозов по элементам и в целом;
- система обработки, анализа и отображения авиаметеорологической информации для применения провайдерами метеорологической информации.


Погода в Астане - сегодня

Время (UTC), дата Ветер
(°,м/с) 
Видим.   Явления Облачность Т
(°С)
Тd
(°С)
f(%) Тe
(°С)
Pmin
(гПа)
dP
(гПа)
Po
(мм)
O2
(г/м3)
Тmin Tmax R s Состояние
почвы
09 23.04.17 250 (З) 8-15{18}  4000 м  слаб. ливневой дождь со снегом  10/10 1000 м кучево-дожд. 
[Cb cap]
+10 +3.5 64 +8  1014.3  -1.6  730  283           
12 23.04.17 250 (З) 10 км  {ливн. осадки}  9/9 1260 м кучево-дожд. 
[Cb cap]
+10.2 +1.3 54 +8  1015.9  1.6  731  284           
15 23.04.17 210 (ЮЗ) 10 км    3/3 1000 м 
[Sc]
+9.7 +1.6 57 +9  1016.3  0.3  731  284    +18     
18 23.04.17 240 (ЮЗ) н/о    10/10 1050 м 
[Sc]
+9.3 +2.8 64 +8  1017.1  0.7  731  285    +18     
21 23.04.17 260 (З) н/о    10/10 840 м 
[Sc]
+7 +2.7 74 +5  1018.9  1.4  733  287           
00 24.04.17 260 (З) 10 км    ясно 
+5.6 +1.7 76 +4  1020.4  1.2  733  289           
03 24.04.17 280 (З) 10 км    ясно 
+7.4 +2.5 71 +6  1022.8  2.6  735  288           
06 24.04.17 280 (З) 10 км    3/0 верхняя 
[Ci fib]
+11.5 +2 52 +11  1022.7  0.5  736  284  +5.4         
09 24.04.17 290 (З) 10 км    8/0 верхняя 
[Ci fib]
+14.6 +2.2 43 +15  1023.1  0.8  736  281           
12 24.04.17 190 (Ю) 10 км    8/0 верхняя 
[Ci]
+15.4 +1.2 38 +16  1022.9  -0.1  736  281           
15 24.04.17 240 (ЮЗ) 10 км    4/0 верхняя 
[Ci fib]
+12.5 +1.8 48 +14  1023.4  0.1  736  283    +16.7       
18 24.04.17 140 (ЮВ) н/о    ясно 
+11.7 +2.2 52 +13  1023.4  -0.1  736  284    +16.7       
21 24.04.17 120 (ЮВ) н/о    ясно 
+11.4 +1.4 50 +13  1022.7  -0.7  736  284           
00 25.04.17 160 (Ю) 10 км    ясно 
+9.4 +1.1 56 +10  1022.5  -0.5  735  286           
03 25.04.17 110 (В) 10 км    ясно 
+12.5 +2.6 51 +14  1021.9  -0.1  735  283           
06 25.04.17 200 (Ю) 10 км    8/0 верхняя 
[Ci fib]
+22 +2.7 28 +22  1019.8  -0.7  735  274  +9.1         
09 25.04.17 150 (ЮВ) 10 км    3/0 верхняя 
[Ci fib]
+25 +0.5 20 +25  1018  -1.4  734  271           
12 25.04.17 210 (ЮЗ) 10 км    ясно 
+25.2 +0.7 20 +25  1016.5  -1.4  733  270           
15 25.04.17 190 (Ю) 10 км    6/0 верхняя 
[Ci]
+22.2 -1.1 21 +22  1016.3  -0.6  732  273    +25.5       
18 25.04.17 070 (В) н/о    ясно 
+18.7 +2.5 34 +20  1016.6  -0.2  732  276    +25.5       
21 25.04.17 120 (ЮВ) н/о    ясно 
+15.9 +3 42 +17  1015.9  -1  731  278           
00 26.04.17 180 (Ю) 10 км    10/0 верхняя 
[Ci]
+14.7 +4.4 50 +15  1016.2  0.1  731  279           
03 26.04.17 170 (Ю) 10 км    8/0 верхняя 
[Ci fib]
+16.9 +5.2 46 +18  1016.2  0.3  732  277           
06 26.04.17 210 (ЮЗ) 10 км    8/0 верхняя 
[Ci]
+24.4 +5.2 29 +24  1013.8  -1.3  731  269  +13.6         
09 26.04.17 200 (Ю) 10 км    3/0 верхняя 
[Ci fib]
+27 +4.7 24 +27  1012.2  -1.2  730  267           
Время (UTC), дата Ветер
(°,м/с) 
Видим.   Явления Облачность Т
(°С)
Тd
(°С)
f(%) Тe
(°С)
Pmin
(гПа)
dP
(гПа)
Po
(мм)
O2
(г/м3)
Тmin Tmax R s Состояние
почвы

Для получения пояснительной информации подведите курсор к названию столбца.

ПОГОДА в Астане - архив

Всё, что Вы хотите узнать о погоде в Астане - удобно и подробно!

Выберите нужную дату (начиная с 1 января 2015* года) и нажмите кнопку "Найти".
Будут отображены архивные сводки погоды по пункту Астана, начиная с указанной даты.


Отображать данные в формате CSV (для использования в таблицах Excel)


Внимание! Наш архив погоды предназначен исключительно для личного некоммерческого использования в познавательных целях. Если Вам необходимы официальные справки о состоянии погоды (для производственных, юридических, коммерческих и т.п. целей), обращайтесь в органы Росгидромета.

*Примечание: данная дата относится к архиву по метеостанциям СССР (Россия, СНГ, Балтия).
Архив по метеостанциям Зарубежной Европы и Азии (кроме Китая) хранится 10 дней, по другим регионам земного шара (Китай, Африка, Америка, Австралия, Океания) - 1 день.

Астана - район местоположения метеостанции


Название, широта, долгота, высота метеостанции:
Астана (город) 51.1°ш. 71.4°д. 350 м над ур. моря [Казахстан]

Дополнительная информация

В oтличие oт бoльшинства пoгoдных сайтoв мы публикуем пoдрoбную метеoинфoрмацию в детальнoм прoфессиoнальнoм фoрмате.

Характеристики температуры и влажнoсти вoздуха измеряются на высoте 2 м в тени вдали oт зданий и деревьев.
Скoрoсть ветра измеряется на высoте 10 м (на урoвне рoста челoвека скoрoсть ветра ниже в 1.5-2 раза). Если метеoстанция нахoдится в гoрoде или в лесу, тo скoрoсть ветра занижена на 2-4 м/с пo сравнению с oткрытым местoм. Скoрoсть ветра над акватoриями крупных рек и oзёр, а также на вершинах хoлмoв на 2-5 м/с выше, чем в oбычных услoвиях.
Атмoсфернoе давление в разных тoчках местнoсти мoжет значительнo oтличаться oт давления на метеoстанции, в зависимoсти oт услoвий рельефа (при пoдъёме на 10 м давление пoнижается примернo на 1 мм рт.ст.).